Starlink 30442

operational
NORAD ID: 57868 Int'l Des: 2023-144 Owner: SPXS Country: US Constellation: starlink
LEOCIRCULAR

Starlink 30442について

説明を読み込み中...

リアルタイム位置

3D地球を読み込み中...

次回通過

高度履歴

Altitude vs Time

uPlot chart will show altitude changes over time

軌道要素

1 57868U 23144E 25305.16467752 .00000368 00000-0 42349-4 0 9994
2 57868 43.0018 266.1056 0001098 270.3591 89.7125 15.02531256118230
Epoch: Nov 1, 2025 • Age: 28 hours

現在のステータス

高度 570.6 km
速度 7.58 km/s
衛星直下点 -40.39°S, 27.34°E
打ち上げ日 Sep 16, 2023
運用期間 2.1 years
タイプ internet

技術仕様

分類 Payload
質量 730.00 kg
乾燥質量 700.00 kg
総質量 730.00 kg
長さ 0.30 m
直径 4.10 m
スパン 29.00 m
形状 Box + pan
製造者 SPXS
バスタイプ Starlink V2M
フェーズステータス In Orbit
所有者/国 SPXS/US

大規模コンステレーション

Loading constellations...